"Data set title: Gaging station water sample data. Usage: Event based table used with water chemistry collection from 01-Oct-2017 to 30-Sep-2018",,,,,,,,,,
,,,,,,,,,,,
"Site","Date","RecNum","SiteID","Flag_SiteID","LOGGERID","PROGID","SAMPLE_INST_0_0_01","Flag_SAMPLE_INST_0_0_01","STAGE_INST_0_0_01","Flag_STAGE_INST_0_0_01"
"","yyyy-MM-dd HH:mm:ss","count","","none","none","none","count","none","ft","none"
"nominal","datetime","nominal","data","code","nominal","nominal","data","code","data","code"
"GSMACK_114",2017-10-01 10:01:15,862,111,"",114,19973.0,23,"",0.1430,""
"GSMACK_114",2017-10-01 23:19:15,863,111,"",114,19973.0,24,"",0.1510,""
"GSMACK_114",2017-10-02 12:37:15,864,111,"",114,19973.0,25,"",0.1430,""
"GSMACK_114",2017-10-03 01:55:15,865,111,"",114,19973.0,26,"",0.1400,""
"GSMACK_114",2017-10-03 15:13:15,866,111,"",114,19973.0,27,"",0.1350,""
"GSMACK_114",2017-10-04 04:31:15,867,111,"",114,19973.0,28,"",0.1340,""
"GSMACK_114",2017-10-04 17:49:15,868,111,"",114,19973.0,29,"",0.1330,""
"GSMACK_114",2017-10-05 07:07:15,869,111,"",114,19973.0,30,"",0.1310,""
"GSMACK_114",2017-10-05 20:25:15,870,111,"",114,19973.0,31,"",0.1280,""
"GSMACK_114",2017-10-06 09:43:15,871,111,"",114,19973.0,32,"",0.1280,""
"GSMACK_114",2017-10-06 23:01:15,872,111,"",114,19973.0,33,"",0.1260,""
"GSMACK_114",2017-10-07 12:19:15,873,111,"",114,19973.0,34,"",0.1260,""
"GSMACK_114",2017-10-08 01:37:15,874,111,"",114,19973.0,35,"",0.1270,""
"GSMACK_114",2017-10-08 14:55:15,875,111,"",114,19973.0,36,"",0.1330,""
"GSMACK_114",2017-10-09 04:13:15,876,111,"",114,19973.0,37,"",0.1320,""
"GSMACK_114",2017-10-09 17:31:15,877,111,"",114,19973.0,38,"",0.1280,""
"GSMACK_114",2017-10-10 06:49:15,878,111,"",114,19973.0,39,"",0.1270,""
"GSMACK_114",2017-10-10 20:07:15,879,111,"",114,19973.0,40,"",0.1330,""
"GSMACK_114",2017-10-11 08:48:45,880,111,"",114,19973.0,41,"",0.1460,""
"GSMACK_114",2017-10-11 08:49:00,881,111,"",114,19973.0,42,"",0.1460,""
"GSMACK_114",2017-10-11 09:25:15,882,111,"",114,19973.0,43,"",0.1500,""
"GSMACK_114",2017-10-11 22:43:15,883,111,"",114,19973.0,1,"",0.1930,""
"GSMACK_114",2017-10-12 12:01:15,884,111,"",114,19973.0,2,"",0.3230,""
"GSMACK_114",2017-10-12 18:39:15,885,111,"",114,19973.0,3,"",0.7360,""
"GSMACK_114",2017-10-13 01:17:15,886,111,"",114,19973.0,4,"",0.6530,""
"GSMACK_114",2017-10-13 14:35:15,887,111,"",114,19973.0,5,"",0.5700,""
"GSMACK_114",2017-10-14 03:53:15,888,111,"",114,19973.0,6,"",0.4660,""
"GSMACK_114",2017-10-14 17:11:15,889,111,"",114,19973.0,7,"",0.3950,""
"GSMACK_114",2017-10-15 06:29:15,890,111,"",114,19973.0,8,"",0.3640,""
"GSMACK_114",2017-10-15 19:47:15,891,111,"",114,19973.0,9,"",0.3530,""
"GSMACK_114",2017-10-16 09:05:15,892,111,"",114,19973.0,10,"",0.3470,""
"GSMACK_114",2017-10-16 22:23:15,893,111,"",114,19973.0,11,"",0.3350,""
"GSMACK_114",2017-10-17 11:41:15,894,111,"",114,19973.0,12,"",0.3140,""
"GSMACK_114",2017-10-18 00:59:15,895,111,"",114,19973.0,13,"",0.2910,""
"GSMACK_114",2017-10-18 14:17:15,896,111,"",114,19973.0,14,"",0.2740,""
"GSMACK_114",2017-10-18 17:57:45,897,111,"",114,19973.0,15,"",0.2670,""
"GSMACK_114",2017-10-18 17:58:45,898,111,"",114,19973.0,16,"",0.2670,""
"GSMACK_114",2017-10-18 18:22:45,899,111,"",114,19973.0,17,"",0.2680,""
"GSMACK_114",2017-10-19 03:35:15,900,111,"",114,19973.0,18,"",0.2640,""
"GSMACK_114",2017-10-19 16:53:15,901,111,"",114,19973.0,19,"",0.3260,""
"GSMACK_114",2017-10-20 06:11:15,902,111,"",114,19973.0,20,"",0.6160,""
"GSMACK_114",2017-10-20 12:49:15,903,111,"",114,19973.0,21,"",0.6690,""
"GSMACK_114",2017-10-21 02:07:15,904,111,"",114,19973.0,22,"",0.6110,""
"GSMACK_114",2017-10-21 08:32:45,905,111,"",114,19973.0,23,"",0.8880,""
"GSMACK_114",2017-10-21 11:50:00,906,111,"",114,19973.0,24,"",1.1950,""
"GSMACK_114",2017-10-21 13:44:00,907,111,"",114,19973.0,25,"",1.5170,""
"GSMACK_114",2017-10-21 15:12:00,908,111,"",114,19973.0,26,"",1.6440,""
"GSMACK_114",2017-10-21 16:40:00,909,111,"",114,19973.0,27,"",1.6450,""
"GSMACK_114",2017-10-21 18:20:00,910,111,"",114,19973.0,28,"",1.6080,""
"GSMACK_114",2017-10-21 20:00:00,911,111,"",114,19973.0,29,"",1.5770,""
"GSMACK_114",2017-10-21 21:54:00,912,111,"",114,19973.0,30,"",1.5280,""
"GSMACK_114",2017-10-21 23:48:00,913,111,"",114,19973.0,31,"",1.4910,""
"GSMACK_114",2017-10-22 01:42:00,914,111,"",114,19973.0,32,"",1.4620,""
"GSMACK_114",2017-10-22 03:22:00,915,111,"",114,19973.0,33,"",1.5830,""
"GSMACK_114",2017-10-22 04:42:00,916,111,"",114,19973.0,34,"",1.7920,""
"GSMACK_114",2017-10-22 05:48:15,917,111,"",114,19973.0,35,"",1.9040,""
"GSMACK_114",2017-10-22 06:50:15,918,111,"",114,19973.0,36,"",1.9920,""
"GSMACK_114",2017-10-22 07:52:15,919,111,"",114,19973.0,37,"",2.0390,""
"GSMACK_114",2017-10-22 08:54:15,920,111,"",114,19973.0,38,"",2.0340,""
"GSMACK_114",2017-10-22 09:56:15,921,111,"",114,19973.0,39,"",1.9960,""
"GSMACK_114",2017-10-22 11:08:15,922,111,"",114,19973.0,40,"",1.8730,""
"GSMACK_114",2017-10-22 12:28:15,923,111,"",114,19973.0,41,"",1.7810,""
"GSMACK_114",2017-10-22 13:56:15,924,111,"",114,19973.0,42,"",1.6950,""
"GSMACK_114",2017-10-22 15:36:15,925,111,"",114,19973.0,43,"",1.6050,""
"GSMACK_114",2017-10-22 17:30:15,926,111,"",114,19973.0,44,"",1.5140,""
"GSMACK_114",2017-10-22 19:44:15,927,111,"",114,19973.0,45,"",1.4160,""
"GSMACK_114",2017-10-22 22:26:15,928,111,"",114,19973.0,46,"",1.3000,""
"GSMACK_114",2017-10-23 01:08:15,929,111,"",114,19973.0,47,"",1.1960,""
"GSMACK_114",2017-10-23 04:30:15,930,111,"",114,19973.0,48,"",1.0890,""
"GSMACK_114",2017-10-23 08:56:15,931,111,"",114,19973.0,49,"",0.9900,""
"GSMACK_114",2017-10-23 13:22:15,932,111,"",114,19973.0,50,"",0.9170,""
"GSMACK_114",2017-10-23 20:00:15,933,111,"",114,19973.0,51,"",0.8330,""
"GSMACK_114",2017-10-24 02:38:15,934,111,"",114,19973.0,52,"",0.7750,""
"GSMACK_114",2017-10-24 09:16:15,935,111,"",114,19973.0,53,"",0.7320,""
"GSMACK_114",2017-10-24 15:54:15,936,111,"",114,19973.0,54,"",0.6940,""
"GSMACK_114",2017-10-24 22:32:15,937,111,"",114,19973.0,55,"",0.6610,""
"GSMACK_114",2017-10-25 05:10:15,938,111,"",114,19973.0,56,"",0.6300,""
"GSMACK_114",2017-10-26 03:19:30,0,111,"",114,44009.0,1,"",0.5380,""
"GSMACK_114",2017-10-26 16:37:30,1,111,"",114,44009.0,2,"",0.5010,""
"GSMACK_114",2017-10-27 05:55:30,2,111,"",114,44009.0,3,"",0.4700,""
"GSMACK_114",2017-10-27 19:13:30,3,111,"",114,44009.0,4,"",0.4390,""
"GSMACK_114",2017-10-28 08:31:30,4,111,"",114,44009.0,5,"",0.4160,""
"GSMACK_114",2017-10-28 21:49:30,5,111,"",114,44009.0,6,"",0.3960,""
"GSMACK_114",2017-10-29 11:07:30,6,111,"",114,44009.0,7,"",0.3830,""
"GSMACK_114",2017-10-30 00:25:30,7,111,"",114,44009.0,8,"",0.3650,""
"GSMACK_114",2017-10-30 13:43:30,8,111,"",114,44009.0,9,"",0.3540,""
"GSMACK_114",2017-10-31 03:01:30,9,111,"",114,44009.0,10,"",0.3410,""
"GSMACK_114",2017-10-31 16:19:30,10,111,"",114,44009.0,11,"",0.3320,""
"GSMACK_114",2017-11-01 05:37:30,11,111,"",114,44009.0,12,"",0.3240,""
"GSMACK_114",2017-11-01 09:58:00,12,111,"",114,44009.0,13,"",0.3190,""
"GSMACK_114",2017-11-01 18:55:30,13,111,"",114,44009.0,1,"",0.3050,""
"GSMACK_114",2017-11-02 08:13:30,14,111,"",114,44009.0,2,"",0.3110,""
"GSMACK_114",2017-11-02 21:31:30,15,111,"",114,44009.0,3,"",0.5750,""
"GSMACK_114",2017-11-03 10:49:30,16,111,"",114,44009.0,4,"",0.4640,""
"GSMACK_114",2017-11-04 00:07:30,17,111,"",114,44009.0,5,"",0.4210,""
"GSMACK_114",2017-11-04 13:25:30,18,111,"",114,44009.0,6,"",0.3930,""
"GSMACK_114",2017-11-05 02:43:30,19,111,"",114,44009.0,7,"",0.3830,""
"GSMACK_114",2017-11-05 16:01:30,20,111,"",114,44009.0,8,"",0.3830,""
"GSMACK_114",2017-11-06 05:19:30,21,111,"",114,44009.0,9,"",0.3710,""
"GSMACK_114",2017-11-06 18:37:30,22,111,"",114,44009.0,10,"",0.3650,""
"GSMACK_114",2017-11-07 07:55:30,23,111,"",114,44009.0,11,"",0.3560,""
"GSMACK_114",2017-11-07 21:13:30,24,111,"",114,44009.0,12,"",0.3540,""
"GSMACK_114",2017-11-08 10:31:30,25,111,"",114,44009.0,13,"",0.3540,""
"GSMACK_114",2017-11-08 23:49:30,26,111,"",114,44009.0,14,"",0.4050,""
"GSMACK_114",2017-11-09 13:07:30,27,111,"",114,44009.0,15,"",0.5900,""
"GSMACK_114",2017-11-10 02:25:30,28,111,"",114,44009.0,16,"",0.5910,""
"GSMACK_114",2017-11-10 09:03:30,29,111,"",114,44009.0,17,"",0.6300,""
"GSMACK_114",2017-11-10 15:41:30,30,111,"",114,44009.0,18,"",0.6970,""
"GSMACK_114",2017-11-10 22:19:30,31,111,"",114,44009.0,19,"",0.7240,""
"GSMACK_114",2017-11-11 04:57:30,32,111,"",114,44009.0,20,"",0.7040,""
"GSMACK_114",2017-11-11 11:35:30,33,111,"",114,44009.0,21,"",0.6850,""
"GSMACK_114",2017-11-11 18:13:30,34,111,"",114,44009.0,22,"",0.6720,""
"GSMACK_114",2017-11-12 00:51:30,35,111,"",114,44009.0,23,"",0.6470,""
"GSMACK_114",2017-11-12 14:09:30,36,111,"",114,44009.0,24,"",0.6150,""
"GSMACK_114",2017-11-13 03:27:30,37,111,"",114,44009.0,25,"",0.6010,""
"GSMACK_114",2017-11-13 10:05:30,38,111,"",114,44009.0,26,"",0.7850,""
"GSMACK_114",2017-11-13 16:43:30,39,111,"",114,44009.0,27,"",0.7390,""
"GSMACK_114",2017-11-13 23:21:30,40,111,"",114,44009.0,28,"",0.7270,""
"GSMACK_114",2017-11-14 05:59:30,41,111,"",114,44009.0,29,"",0.7180,""
"GSMACK_114",2017-11-14 12:37:30,42,111,"",114,44009.0,30,"",0.6960,""
"GSMACK_114",2017-11-14 19:15:30,43,111,"",114,44009.0,31,"",0.6780,""
"GSMACK_114",2017-11-15 01:53:30,44,111,"",114,44009.0,32,"",0.6540,""
"GSMACK_114",2017-11-15 08:31:30,45,111,"",114,44009.0,33,"",0.6350,""
"GSMACK_114",2017-11-15 16:31:45,46,111,"",114,44009.0,34,"",0.6300,""
"GSMACK_114",2017-11-15 23:09:45,47,111,"",114,44009.0,35,"",0.6620,""
"GSMACK_114",2017-11-16 05:47:45,48,111,"",114,44009.0,36,"",0.6350,""
"GSMACK_114",2017-11-16 13:35:15,49,111,"",114,44009.0,37,"",0.6300,""
"GSMACK_114",2017-11-16 20:13:15,50,111,"",114,44009.0,38,"",0.6410,""
"GSMACK_114",2017-11-17 09:31:15,51,111,"",114,44009.0,39,"",0.6050,""
"GSMACK_114",2017-11-17 22:49:15,52,111,"",114,44009.0,40,"",0.5740,""
"GSMACK_114",2017-11-18 12:07:15,53,111,"",114,44009.0,41,"",0.5400,""
"GSMACK_114",2017-11-19 01:25:15,54,111,"",114,44009.0,42,"",0.5140,""
"GSMACK_114",2017-11-19 14:43:15,55,111,"",114,44009.0,43,"",0.4950,""
"GSMACK_114",2017-11-20 01:31:15,56,111,"",114,44009.0,44,"",0.6300,""
"GSMACK_114",2017-11-20 06:54:15,57,111,"",114,44009.0,45,"",0.8890,""
"GSMACK_114",2017-11-20 09:36:15,58,111,"",114,44009.0,46,"",1.3190,""
"GSMACK_114",2017-11-20 11:30:15,59,111,"",114,44009.0,47,"",1.4630,""
"GSMACK_114",2017-11-20 13:24:15,60,111,"",114,44009.0,48,"",1.4700,""
"GSMACK_114",2017-11-20 15:18:15,61,111,"",114,44009.0,49,"",1.4710,""
"GSMACK_114",2017-11-20 17:32:15,62,111,"",114,44009.0,50,"",1.4240,""
"GSMACK_114",2017-11-20 19:46:15,63,111,"",114,44009.0,51,"",1.3630,""
"GSMACK_114",2017-11-20 22:28:15,64,111,"",114,44009.0,52,"",1.3140,""
"GSMACK_114",2017-11-21 01:10:15,65,111,"",114,44009.0,53,"",1.3140,""
"GSMACK_114",2017-11-21 03:30:30,66,111,"",114,44009.0,54,"",1.3220,""
"GSMACK_114",2017-11-21 06:12:30,67,111,"",114,44009.0,55,"",1.2790,""
"GSMACK_114",2017-11-21 08:54:30,68,111,"",114,44009.0,56,"",1.2480,""
"GSMACK_114",2017-11-21 11:36:30,69,111,"",114,44009.0,57,"",1.2190,""
"GSMACK_114",2017-11-21 14:20:15,70,111,"",114,44009.0,58,"",1.1740,""
"GSMACK_114",2017-11-21 14:58:30,71,111,"",114,44009.0,1,"",1.1670,""
"GSMACK_114",2017-11-21 18:20:30,72,111,"",114,44009.0,2,"",1.1190,""
"GSMACK_114",2017-11-21 21:42:30,73,111,"",114,44009.0,3,"",1.0830,""
"GSMACK_114",2017-11-22 01:04:30,74,111,"",114,44009.0,4,"",1.0480,""
"GSMACK_114",2017-11-22 05:30:30,75,111,"",114,44009.0,5,"",1.0110,""
"GSMACK_114",2017-11-22 09:56:30,76,111,"",114,44009.0,6,"",0.9690,""
"GSMACK_114",2017-11-22 14:22:30,77,111,"",114,44009.0,7,"",0.9320,""
"GSMACK_114",2017-11-22 18:48:30,78,111,"",114,44009.0,8,"",0.9050,""
"GSMACK_114",2017-11-23 01:26:30,79,111,"",114,44009.0,9,"",0.8720,""
"GSMACK_114",2017-11-23 05:52:30,80,111,"",114,44009.0,10,"",0.9480,""
"GSMACK_114",2017-11-23 08:34:30,81,111,"",114,44009.0,11,"",1.2990,""
"GSMACK_114",2017-11-23 09:54:30,82,111,"",114,44009.0,12,"",1.7650,""
"GSMACK_114",2017-11-23 11:22:30,83,111,"",114,44009.0,13,"",1.6800,""
"GSMACK_114",2017-11-23 12:34:30,84,111,"",114,44009.0,14,"",1.8350,""
"GSMACK_114",2017-11-23 13:46:30,85,111,"",114,44009.0,15,"",1.8540,""
"GSMACK_114",2017-11-23 15:06:30,86,111,"",114,44009.0,16,"",1.7900,""
"GSMACK_114",2017-11-23 16:26:30,87,111,"",114,44009.0,17,"",1.7480,""
"GSMACK_114",2017-11-23 17:46:30,88,111,"",114,44009.0,18,"",1.7460,""
"GSMACK_114",2017-11-23 19:14:30,89,111,"",114,44009.0,19,"",1.7040,""
"GSMACK_114",2017-11-23 20:42:30,90,111,"",114,44009.0,20,"",1.6550,""
"GSMACK_114",2017-11-23 22:22:30,91,111,"",114,44009.0,21,"",1.6020,""
"GSMACK_114",2017-11-24 00:16:30,92,111,"",114,44009.0,22,"",1.5320,""
"GSMACK_114",2017-11-24 02:10:30,93,111,"",114,44009.0,23,"",1.4730,""
"GSMACK_114",2017-11-24 04:24:30,94,111,"",114,44009.0,24,"",1.4100,""
"GSMACK_114",2017-11-24 06:38:30,95,111,"",114,44009.0,25,"",1.3470,""
"GSMACK_114",2017-11-24 09:20:30,96,111,"",114,44009.0,26,"",1.2730,""
"GSMACK_114",2017-11-24 12:02:30,97,111,"",114,44009.0,27,"",1.2080,""
"GSMACK_114",2017-11-24 15:24:30,98,111,"",114,44009.0,28,"",1.1370,""
"GSMACK_114",2017-11-24 18:46:30,99,111,"",114,44009.0,29,"",1.0760,""
"GSMACK_114",2017-11-24 23:12:30,100,111,"",114,44009.0,30,"",1.0120,""
"GSMACK_114",2017-11-25 03:38:30,101,111,"",114,44009.0,31,"",0.9650,""
"GSMACK_114",2017-11-25 08:04:30,102,111,"",114,44009.0,32,"",0.9220,""
"GSMACK_114",2017-11-25 14:42:30,103,111,"",114,44009.0,33,"",0.8650,""
"GSMACK_114",2017-11-25 21:20:30,104,111,"",114,44009.0,34,"",0.8200,""
"GSMACK_114",2017-11-26 03:58:30,105,111,"",114,44009.0,35,"",0.7800,""
"GSMACK_114",2017-11-26 10:36:30,106,111,"",114,44009.0,36,"",0.7590,""
"GSMACK_114",2017-11-26 17:14:30,107,111,"",114,44009.0,37,"",0.8340,""
"GSMACK_114",2017-11-26 23:52:30,108,111,"",114,44009.0,38,"",0.7830,""
"GSMACK_114",2017-11-27 06:30:30,109,111,"",114,44009.0,39,"",0.7460,""
"GSMACK_114",2017-11-27 13:08:30,110,111,"",114,44009.0,40,"",0.7220,""
"GSMACK_114",2017-11-27 19:46:30,111,111,"",114,44009.0,41,"",0.6950,""
"GSMACK_114",2017-11-28 02:24:30,112,111,"",114,44009.0,42,"",0.6730,""
"GSMACK_114",2017-11-28 09:02:30,113,111,"",114,44009.0,43,"",0.6560,""
"GSMACK_114",2017-11-28 15:40:30,114,111,"",114,44009.0,44,"",0.6810,""
"GSMACK_114",2017-11-28 22:18:30,115,111,"",114,44009.0,45,"",0.6490,""
"GSMACK_114",2017-11-29 04:56:30,116,111,"",114,44009.0,46,"",0.6330,""
"GSMACK_114",2017-11-29 18:14:30,117,111,"",114,44009.0,47,"",0.6070,""
"GSMACK_114",2017-11-30 07:32:30,118,111,"",114,44009.0,48,"",0.5790,""
"GSMACK_114",2017-11-30 20:50:30,119,111,"",114,44009.0,49,"",0.5510,""
"GSMACK_114",2017-12-01 10:08:30,120,111,"",114,44009.0,50,"",0.5310,""
"GSMACK_114",2017-12-01 23:26:30,121,111,"",114,44009.0,51,"",0.5130,""
"GSMACK_114",2017-12-02 12:44:30,122,111,"",114,44009.0,52,"",0.4950,""
"GSMACK_114",2017-12-03 02:02:30,123,111,"",114,44009.0,53,"",0.4860,""
"GSMACK_114",2017-12-03 15:20:30,124,111,"",114,44009.0,54,"",0.4670,""
"GSMACK_114",2017-12-04 04:38:30,125,111,"",114,44009.0,55,"",0.4430,""
"GSMACK_114",2017-12-04 17:56:30,126,111,"",114,44009.0,56,"",0.4260,""
"GSMACK_114",2017-12-05 07:14:30,127,111,"",114,44009.0,57,"",0.4120,""
"GSMACK_114",2017-12-05 20:32:30,128,111,"",114,44009.0,58,"",0.4070,""
"GSMACK_114",2017-12-06 09:50:30,129,111,"",114,44009.0,59,"",0.3970,""
"GSMACK_114",2017-12-06 23:08:30,130,111,"",114,44009.0,60,"",0.3900,""
"GSMACK_114",2017-12-07 12:26:30,131,111,"",114,44009.0,61,"",0.3840,""
"GSMACK_114",2017-12-08 01:44:30,132,111,"",114,44009.0,62,"",0.3810,""
"GSMACK_114",2017-12-08 15:02:30,133,111,"",114,44009.0,63,"",0.3760,""
"GSMACK_114",2017-12-09 04:20:30,134,111,"",114,44009.0,64,"",0.3690,""
"GSMACK_114",2017-12-09 17:38:30,135,111,"",114,44009.0,65,"",0.3610,""
"GSMACK_114",2017-12-10 06:56:30,136,111,"",114,44009.0,66,"",0.3560,""
"GSMACK_114",2017-12-10 20:14:30,137,111,"",114,44009.0,67,"",0.3490,""
"GSMACK_114",2017-12-11 09:32:30,138,111,"",114,44009.0,68,"",0.3430,""
"GSMACK_114",2017-12-11 22:50:30,139,111,"",114,44009.0,69,"",0.3350,""
"GSMACK_114",2017-12-12 12:08:30,140,111,"",114,44009.0,70,"",0.3280,""
"GSMACK_114",2017-12-13 01:26:30,141,111,"",114,44009.0,71,"",0.3230,""
"GSMACK_114",2017-12-14 02:26:15,0,111,"",114,26829.0,1,"",0.3110,""
"GSMACK_114",2017-12-14 15:44:15,1,111,"",114,26829.0,2,"",0.3080,""
"GSMACK_114",2017-12-15 05:02:15,2,111,"",114,26829.0,3,"",0.3020,""
"GSMACK_114",2017-12-15 18:20:15,3,111,"",114,26829.0,4,"",0.3000,""
"GSMACK_114",2017-12-16 07:38:15,4,111,"",114,26829.0,5,"",0.2950,""
"GSMACK_114",2017-12-16 20:56:15,5,111,"",114,26829.0,6,"",0.2910,""
"GSMACK_114",2017-12-17 10:14:15,6,111,"",114,26829.0,7,"",0.2860,""
"GSMACK_114",2017-12-17 23:32:15,7,111,"",114,26829.0,8,"",0.2850,""
"GSMACK_114",2017-12-18 12:50:15,8,111,"",114,26829.0,9,"",0.2790,""
"GSMACK_114",2017-12-19 02:08:15,9,111,"",114,26829.0,10,"",0.2760,""
"GSMACK_114",2017-12-19 15:26:15,10,111,"",114,26829.0,11,"",0.3280,""
"GSMACK_114",2017-12-20 04:44:15,11,111,"",114,26829.0,12,"",0.2980,""
"GSMACK_114",2017-12-20 18:02:15,12,111,"",114,26829.0,13,"",0.2830,""
"GSMACK_114",2017-12-21 07:20:15,13,111,"",114,26829.0,14,"",0.2710,""
"GSMACK_114",2017-12-21 20:38:15,14,111,"",114,26829.0,15,"",0.2700,""
"GSMACK_114",2017-12-22 09:56:15,15,111,"",114,26829.0,16,"",0.2670,""
"GSMACK_114",2017-12-22 23:14:15,16,111,"",114,26829.0,17,"",0.2660,""
"GSMACK_114",2017-12-23 12:32:15,17,111,"",114,26829.0,18,"",0.2660,""
"GSMACK_114",2017-12-24 01:50:15,18,111,"",114,26829.0,19,"",0.2630,""
"GSMACK_114",2017-12-24 15:08:15,19,111,"",114,26829.0,20,"",0.2630,""
"GSMACK_114",2017-12-25 04:26:15,20,111,"",114,26829.0,21,"",0.3670,""
"GSMACK_114",2017-12-25 17:44:15,21,111,"",114,26829.0,22,"",0.3460,""
"GSMACK_114",2017-12-26 07:02:15,22,111,"",114,26829.0,23,"",0.3250,""
"GSMACK_114",2017-12-26 20:20:15,23,111,"",114,26829.0,24,"",0.3140,""
"GSMACK_114",2017-12-27 09:38:15,24,111,"",114,26829.0,25,"",0.3280,""
"GSMACK_114",2017-12-27 22:56:15,25,111,"",114,26829.0,26,"",0.3440,""
"GSMACK_114",2017-12-28 12:14:15,26,111,"",114,26829.0,27,"",0.3440,""
"GSMACK_114",2017-12-28 23:14:45,27,111,"",114,26829.0,28,"",0.6300,""
"GSMACK_114",2017-12-29 05:52:45,28,111,"",114,26829.0,29,"",0.7650,""
"GSMACK_114",2017-12-29 12:30:45,29,111,"",114,26829.0,30,"",0.7590,""
"GSMACK_114",2017-12-29 19:08:45,30,111,"",114,26829.0,31,"",0.8720,""
"GSMACK_114",2017-12-29 22:30:45,31,111,"",114,26829.0,32,"",1.1480,""
"GSMACK_114",2017-12-30 01:52:45,32,111,"",114,26829.0,33,"",1.0880,""
"GSMACK_114",2017-12-30 06:18:45,33,111,"",114,26829.0,34,"",1.0040,""
"GSMACK_114",2017-12-30 10:44:45,34,111,"",114,26829.0,35,"",0.9340,""
"GSMACK_114",2017-12-30 17:22:45,35,111,"",114,26829.0,36,"",0.8470,""
"GSMACK_114",2017-12-31 00:00:45,36,111,"",114,26829.0,37,"",0.7770,""
"GSMACK_114",2017-12-31 06:38:45,37,111,"",114,26829.0,38,"",0.7200,""
"GSMACK_114",2017-12-31 13:16:45,38,111,"",114,26829.0,39,"",0.6710,""
"GSMACK_114",2017-12-31 19:54:45,39,111,"",114,26829.0,40,"",0.6330,""
"GSMACK_114",2018-01-01 09:12:45,40,111,"",114,26829.0,41,"",0.5780,""
"GSMACK_114",2018-01-01 22:30:45,41,111,"",114,26829.0,42,"",0.5410,""
"GSMACK_114",2018-01-02 11:48:45,42,111,"",114,26829.0,43,"",0.5140,""
"GSMACK_114",2018-01-03 01:06:45,43,111,"",114,26829.0,44,"",0.5010,""
"GSMACK_114",2018-01-03 10:02:30,44,111,"",114,26829.0,45,"",0.4910,""
"GSMACK_114",2018-01-03 14:24:45,45,111,"",114,26829.0,1,"",0.4900,""
"GSMACK_114",2018-01-04 03:42:45,46,111,"",114,26829.0,2,"",0.4790,""
"GSMACK_114",2018-01-04 17:00:45,47,111,"",114,26829.0,3,"",0.4660,""
"GSMACK_114",2018-01-05 06:18:45,48,111,"",114,26829.0,4,"",0.4530,""
"GSMACK_114",2018-01-05 19:36:45,49,111,"",114,26829.0,5,"",0.4490,""
"GSMACK_114",2018-01-06 08:54:45,50,111,"",114,26829.0,6,"",0.4340,""
"GSMACK_114",2018-01-06 22:12:45,51,111,"",114,26829.0,7,"",0.4150,""
"GSMACK_114",2018-01-07 11:30:45,52,111,"",114,26829.0,8,"",0.4000,""
"GSMACK_114",2018-01-08 00:48:45,53,111,"",114,26829.0,9,"",0.3890,""
"GSMACK_114",2018-01-08 14:06:45,54,111,"",114,26829.0,10,"",0.3810,""
"GSMACK_114",2018-01-09 03:24:45,55,111,"",114,26829.0,11,"",0.3770,""
"GSMACK_114",2018-01-09 16:42:45,56,111,"",114,26829.0,12,"",0.4490,""
"GSMACK_114",2018-01-10 06:00:45,57,111,"",114,26829.0,13,"",0.4160,""
"GSMACK_114",2018-01-10 19:18:45,58,111,"",114,26829.0,14,"",0.4180,""
"GSMACK_114",2018-01-11 08:36:45,59,111,"",114,26829.0,15,"",0.6160,""
"GSMACK_114",2018-01-11 14:20:15,60,111,"",114,26829.0,16,"",0.8880,""
"GSMACK_114",2018-01-11 18:46:15,61,111,"",114,26829.0,17,"",0.9540,""
"GSMACK_114",2018-01-11 22:08:15,62,111,"",114,26829.0,18,"",1.1240,""
"GSMACK_114",2018-01-12 01:30:15,63,111,"",114,26829.0,19,"",1.0880,""
"GSMACK_114",2018-01-12 05:56:15,64,111,"",114,26829.0,20,"",1.0160,""
"GSMACK_114",2018-01-12 10:22:15,65,111,"",114,26829.0,21,"",0.9500,""
"GSMACK_114",2018-01-12 14:48:15,66,111,"",114,26829.0,22,"",0.8970,""
"GSMACK_114",2018-01-12 21:26:15,67,111,"",114,26829.0,23,"",0.8240,""
"GSMACK_114",2018-01-13 04:04:15,68,111,"",114,26829.0,24,"",0.7660,""
"GSMACK_114",2018-01-13 10:42:15,69,111,"",114,26829.0,25,"",0.7200,""
"GSMACK_114",2018-01-13 17:20:15,70,111,"",114,26829.0,26,"",0.6820,""
"GSMACK_114",2018-01-13 23:58:15,71,111,"",114,26829.0,27,"",0.6500,""
"GSMACK_114",2018-01-14 13:16:15,72,111,"",114,26829.0,28,"",0.6040,""
"GSMACK_114",2018-01-15 02:34:15,73,111,"",114,26829.0,29,"",0.5650,""
"GSMACK_114",2018-01-15 15:52:15,74,111,"",114,26829.0,30,"",0.5320,""
"GSMACK_114",2018-01-16 05:10:15,75,111,"",114,26829.0,31,"",0.5290,""
"GSMACK_114",2018-01-16 18:28:15,76,111,"",114,26829.0,32,"",0.4920,""
"GSMACK_114",2018-01-17 07:46:15,77,111,"",114,26829.0,33,"",0.4750,""
"GSMACK_114",2018-01-17 21:04:15,78,111,"",114,26829.0,34,"",0.4600,""
"GSMACK_114",2018-01-18 10:22:15,79,111,"",114,26829.0,35,"",0.5740,""
"GSMACK_114",2018-01-18 23:40:15,80,111,"",114,26829.0,36,"",0.5800,""
"GSMACK_114",2018-01-19 12:58:15,81,111,"",114,26829.0,37,"",0.5450,""
"GSMACK_114",2018-01-20 02:16:15,82,111,"",114,26829.0,38,"",0.5230,""
"GSMACK_114",2018-01-20 15:34:15,83,111,"",114,26829.0,39,"",0.5040,""
"GSMACK_114",2018-01-21 04:52:15,84,111,"",114,26829.0,40,"",0.4840,""
"GSMACK_114",2018-01-21 18:10:15,85,111,"",114,26829.0,41,"",0.5650,""
"GSMACK_114",2018-01-22 07:28:15,86,111,"",114,26829.0,42,"",0.5340,""
"GSMACK_114",2018-01-22 20:46:15,87,111,"",114,26829.0,43,"",0.5290,""
"GSMACK_114",2018-01-23 10:04:15,88,111,"",114,26829.0,44,"",0.5090,""
"GSMACK_114",2018-01-23 19:19:30,89,111,"",114,26829.0,45,"",0.6300,""
"GSMACK_114",2018-01-24 01:57:30,90,111,"",114,26829.0,46,"",0.6670,""
"GSMACK_114",2018-01-24 08:35:30,91,111,"",114,26829.0,47,"",0.7850,""
"GSMACK_114",2018-01-24 09:58:00,92,111,"",114,26829.0,48,"",0.7920,""
"GSMACK_114",2018-01-24 15:13:30,93,111,"",114,26829.0,1,"",0.7950,""
"GSMACK_114",2018-01-24 21:51:30,94,111,"",114,26829.0,2,"",0.8060,""
"GSMACK_114",2018-01-25 04:29:30,95,111,"",114,26829.0,3,"",0.7680,""
"GSMACK_114",2018-01-25 11:07:30,96,111,"",114,26829.0,4,"",0.7420,""
"GSMACK_114",2018-01-25 17:45:30,97,111,"",114,26829.0,5,"",0.7000,""
"GSMACK_114",2018-01-26 00:23:30,98,111,"",114,26829.0,6,"",0.6700,""
"GSMACK_114",2018-01-26 07:01:30,99,111,"",114,26829.0,7,"",0.6410,""
"GSMACK_114",2018-01-26 20:19:30,100,111,"",114,26829.0,8,"",0.6040,""
"GSMACK_114",2018-01-27 06:54:30,101,111,"",114,26829.0,9,"",0.6300,""
"GSMACK_114",2018-01-27 13:13:30,102,111,"",114,26829.0,10,"",0.8870,""
"GSMACK_114",2018-01-27 17:39:30,103,111,"",114,26829.0,11,"",1.0180,""
"GSMACK_114",2018-01-27 21:01:30,104,111,"",114,26829.0,12,"",1.0490,""
"GSMACK_114",2018-01-28 00:23:30,105,111,"",114,26829.0,13,"",1.0890,""